DW6996 Weather Reports


Display with metric or nautical units.
time (UTC)temp
F
wind
direction
speed
MPH
gust
MPH
rain 1hr
in
rain 24hr
in
rain mn
in
humidity
%
barometer
mb
20260504070201 77 198 0.0 0.0 0.00 0.00 0.00 31 1008.4
20260504060140 79 190 0.0 1.0 0.00 0.00 0.00 27 1007.8
20260504050638 81 209 1.0 9.0 0.00 0.00 0.00 23 1008.2
20260504050138 81 200 1.0 9.0 0.00 0.00 0.00 22 1008.2
20260504045633 81 216 0.0 7.0 0.00 0.00 0.00 22 1008.3
20260504045353 81 226 0.0 3.0 0.00 0.00 0.00 21 1008.3
20260504044854 81 231 0.0 3.0 0.00 0.00 0.00 21 1008.2
20260504044132 81 209 0.0 3.0 0.00 0.00 0.00 21 1008.2
20260504043631 81 207 1.0 15.0 0.00 0.00 0.00 21 1008.1
20260504043131 82 222 1.0 15.0 0.00 0.00 0.00 21 1008.1
20260504042630 82 187 2.0 14.0 0.00 0.00 0.00 21 1008.1
20260504042129 82 255 2.0 11.0 0.00 0.00 0.00 20 1008.1
20260504041630 82 246 1.0 12.0 0.00 0.00 0.00 20 1007.7
20260504041129 82 226 2.0 16.0 0.00 0.00 0.00 20 1007.8
20260504040630 82 194 2.0 16.0 0.00 0.00 0.00 20 1007.6
20260504040130 82 213 2.0 11.0 0.00 0.00 0.00 20 1007.6
20260504035629 83 182 2.0 11.0 0.00 0.00 0.00 19 1007.5
20260504035130 83 227 2.0 11.0 0.00 0.00 0.00 19 1007.5
20260504034630 83 230 2.0 11.0 0.00 0.00 0.00 19 1007.4
20260504034351 83 197 2.0 10.0 0.00 0.00 0.00 18 1007.2
20260504033631 83 224 2.0 16.0 0.00 0.00 0.00 18 1006.8
20260504033350 84 184 2.0 16.0 0.00 0.00 0.00 17 1006.8
20260504032854 84 204 4.0 16.0 0.00 0.00 0.00 17 1006.6
20260504032130 84 221 5.0 16.0 0.00 0.00 0.00 17 1006.6
20260504031630 84 211 4.0 19.0 0.00 0.00 0.00 17 1006.6
20260504031129 85 207 4.0 19.0 0.00 0.00 0.00 17 1006.5
20260504030629 85 217 3.0 15.0 0.00 0.00 0.00 16 1006.4
20260504030129 85 220 2.0 15.0 0.00 0.00 0.00 16 1006.2
20260504025853 85 223 3.0 14.0 0.00 0.00 0.00 16 1006.1
20260504025356 86 220 4.0 16.0 0.00 0.00 0.00 15 1006.1
20260504024629 86 205 3.0 16.0 0.00 0.00 0.00 15 1006.0
20260504024129 86 232 1.0 11.0 0.00 0.00 0.00 15 1005.8
20260504023628 86 245 2.0 11.0 0.00 0.00 0.00 15 1005.7
20260504023129 86 231 5.0 15.0 0.00 0.00 0.00 15 1005.5
20260504022629 87 223 5.0 19.0 0.00 0.00 0.00 15 1005.5
20260504022129 87 209 3.0 19.0 0.00 0.00 0.00 15 1005.5
20260504022119 87 211 5.0 18.0 0.00 0.00 0.00 16 1005.4
20260504021129 87 211 5.0 18.0 0.00 0.00 0.00 16 1005.1
20260504020851 87 229 4.0 17.0 0.00 0.00 0.00 17 1005.1
20260504020129 87 229 3.0 17.0 0.00 0.00 0.00 17 1005.2
20260504015628 88 235 2.0 14.0 0.00 0.00 0.00 17 1004.8
20260504015128 88 260 3.0 16.0 0.00 0.00 0.00 17 1004.8
20260504014848 88 209 5.0 16.0 0.00 0.00 0.00 17 1004.9
20260504014129 88 250 6.0 18.0 0.00 0.00 0.00 17 1004.7
20260504013630 88 215 4.0 18.0 0.00 0.00 0.00 16 1004.7
20260504013129 89 223 6.0 21.0 0.00 0.00 0.00 16 1004.7
20260504012629 89 234 8.0 21.0 0.00 0.00 0.00 15 1004.6
20260504012130 89 243 7.0 20.0 0.00 0.00 0.00 15 1004.7
20260504011855 90 217 5.0 23.0 0.00 0.00 0.00 15 1004.7
20260504011130 90 263 5.0 23.0 0.00 0.00 0.00 15 1004.6
20260504010629 91 232 8.0 24.0 0.00 0.00 0.00 15 1004.8
20260504010131 91 234 8.0 26.0 0.00 0.00 0.00 14 1004.7
20260504005628 91 237 7.0 26.0 0.00 0.00 0.00 14 1004.7
20260504005621 91 231 8.0 21.0 0.00 0.00 0.00 14 1004.7
20260504004629 92 211 8.0 22.0 0.00 0.00 0.00 14 1004.7
20260504004129 92 211 10.0 23.0 0.00 0.00 0.00 14 1004.8
20260504003630 92 230 12.0 23.0 0.00 0.00 0.00 14 1004.7
20260504003129 92 215 9.0 23.0 0.00 0.00 0.00 14 1004.7
20260504002629 93 240 8.0 25.0 0.00 0.00 0.00 14 1004.6
20260504002129 93 236 10.0 25.0 0.00 0.00 0.00 13 1004.6
20260504001628 93 234 9.0 23.0 0.00 0.00 0.00 13 1004.5
20260504001130 94 220 10.0 26.0 0.00 0.00 0.00 13 1004.4
20260504000628 94 225 7.0 26.0 0.00 0.00 0.00 13 1004.4
20260504000129 95 220 1.0 20.0 0.00 0.00 0.00 13 1004.3
20260503235629 95 232 0.0 13.0 0.00 0.00 0.00 12 1004.3
20260503235129 95 219 0.0 5.0 0.00 0.00 0.00 12 1004.3
20260503234629 95 219 1.0 7.0 0.00 0.00 0.00 12 1004.4
20260503234129 95 236 3.0 18.0 0.00 0.00 0.00 12 1004.4
20260503233629 95 234 3.0 18.0 0.00 0.00 0.00 12 1004.4
20260503233352 95 235 1.0 17.0 0.00 0.00 0.00 12 1004.4
20260503232630 95 223 1.0 9.0 0.00 0.00 0.00 12 1004.4
20260503232129 95 250 1.0 8.0 0.00 0.00 0.00 12 1004.4
20260503231630 95 215 1.0 14.0 0.00 0.00 0.00 12 1004.5
20260503231350 96 229 1.0 14.0 0.00 0.00 0.00 13 1004.6
20260503230629 96 273 1.0 12.0 0.00 0.00 0.00 13 1004.6
20260503230129 96 248 2.0 15.0 0.00 0.00 0.00 13 1004.7
20260503225630 95 206 2.0 16.0 0.00 0.00 0.00 13 1004.8
20260503225129 95 155 3.0 16.0 0.00 0.00 0.00 13 1004.7
20260503224629 95 200 4.0 15.0 0.00 0.00 0.00 13 1004.9
20260503224129 95 191 4.0 16.0 0.00 0.00 0.00 13 1004.9
20260503223629 95 122 3.0 16.0 0.00 0.00 0.00 13 1005.1
20260503223129 96 200 1.0 12.0 0.00 0.00 0.00 13 1005.2
20260503222629 96 139 0.0 5.0 0.00 0.00 0.00 13 1005.4
20260503222130 96 209 0.0 1.0 0.00 0.00 0.00 13 1005.4
20260503221630 95 196 0.0 5.0 0.00 0.00 0.00 13 1005.6
20260503221129 95 232 0.0 6.0 0.00 0.00 0.00 14 1005.8
20260503220627 94 211 1.0 13.0 0.00 0.00 0.00 14 1005.8
20260503220127 94 192 1.0 13.0 0.00 0.00 0.00 14 1005.9
20260503215625 94 197 1.0 17.0 0.00 0.00 0.00 14 1006.0
20260503215125 94 146 3.0 19.0 0.00 0.00 0.00 14 1006.1
20260503214845 94 175 3.0 19.0 0.00 0.00 0.00 14 1006.2
20260503214125 94 176 3.0 18.0 0.00 0.00 0.00 14 1006.2
20260503213626 94 139 3.0 16.0 0.00 0.00 0.00 14 1006.3
20260503213122 94 158 3.0 28.0 0.00 0.00 0.00 14 1006.4
20260503212843 93 191 5.0 28.0 0.00 0.00 0.00 15 1006.4
20260503212123 92 157 9.0 29.0 0.00 0.00 0.00 15 1006.5
20260503211623 93 104 10.0 29.0 0.00 0.00 0.00 15 1006.6
20260503211342 93 80 5.0 23.0 0.00 0.00 0.00 15 1006.6
20260503210621 94 155 3.0 21.0 0.00 0.00 0.00 15 1006.8
20260503210121 94 142 2.0 15.0 0.00 0.00 0.00 16 1006.8
20260503210104 94 158 2.0 15.0 0.00 0.00 0.00 15 1006.9
20260503205119 93 167 1.0 17.0 0.00 0.00 0.00 16 1006.9
20260503204619 93 144 3.0 17.0 0.00 0.00 0.00 16 1007.2
20260503204117 93 163 2.0 17.0 0.00 0.00 0.00 16 1007.1
20260503203616 93 195 2.0 13.0 0.00 0.00 0.00 17 1007.2
20260503203337 93 189 2.0 13.0 0.00 0.00 0.00 17 1007.2
20260503202616 92 126 4.0 17.0 0.00 0.00 0.00 17 1007.4
20260503202117 93 118 3.0 17.0 0.00 0.00 0.00 16 1007.5
20260503201617 93 207 1.0 9.0 0.00 0.00 0.00 17 1007.4
20260503201116 92 124 1.0 9.0 0.00 0.00 0.00 18 1007.5
20260503200616 93 115 1.0 18.0 0.00 0.00 0.00 18 1007.8
20260503200112 92 133 1.0 18.0 0.00 0.00 0.00 19 1007.7
20260503195613 93 238 0.0 6.0 0.00 0.00 0.00 19 1007.7
20260503195112 92 156 2.0 14.0 0.00 0.00 0.00 20 1007.8
20260503194613 91 138 2.0 14.0 0.00 0.00 0.00 19 1008.1
20260503194112 91 186 0.0 12.0 0.00 0.00 0.00 20 1008.1
20260503193840 91 217 1.0 11.0 0.00 0.00 0.00 21 1008.2
20260503193113 91 130 1.0 13.0 0.00 0.00 0.00 21 1008.4
20260503192613 91 111 1.0 13.0 0.00 0.00 0.00 20 1008.6
20260503192113 90 138 1.0 12.0 0.00 0.00 0.00 21 1008.6
20260503191608 90 144 2.0 13.0 0.00 0.00 0.00 21 1008.7
20260503191545 90 119 1.0 13.0 0.00 0.00 0.00 21 1008.8
20260503190603 90 128 1.0 9.0 0.00 0.00 0.00 21 1008.8
20260503190326 89 136 1.0 9.0 0.00 0.00 0.00 21 1008.9
20260503185601 89 155 3.0 19.0 0.00 0.00 0.00 21 1009.0
20260503185102 89 111 3.0 19.0 0.00 0.00 0.00 21 1009.1
20260503184601 89 138 1.0 14.0 0.00 0.00 0.00 21 1009.1
20260503184101 89 134 2.0 14.0 0.00 0.00 0.00 21 1009.2
20260503183602 89 146 3.0 17.0 0.00 0.00 0.00 20 1009.3
20260503183101 89 140 2.0 17.0 0.00 0.00 0.00 20 1009.3
20260503182601 89 124 1.0 14.0 0.00 0.00 0.00 20 1009.4
20260503182102 89 171 1.0 14.0 0.00 0.00 0.00 20 1009.4
20260503181602 88 147 2.0 14.0 0.00 0.00 0.00 20 1009.5
20260503181101 88 177 3.0 13.0 0.00 0.00 0.00 21 1009.6
20260503180603 87 155 4.0 16.0 0.00 0.00 0.00 21 1009.7
20260503180059 86 143 3.0 16.0 0.00 0.00 0.00 21 1009.7
20260503175553 86 137 4.0 16.0 0.00 0.00 0.00 22 1009.7
20260503175047 86 161 3.0 13.0 0.00 0.00 0.00 22 1009.8
20260503174540 86 159 2.0 13.0 0.00 0.00 0.00 24 1009.8
20260503174034 86 153 2.0 16.0 0.00 0.00 0.00 24 1009.8
20260503173530 86 138 2.0 17.0 0.00 0.00 0.00 24 1009.9
20260503173031 86 95 1.0 17.0 0.00 0.00 0.00 24 1009.8
20260503172529 85 137 1.0 9.0 0.00 0.00 0.00 24 1009.8
20260503172250 85 117 2.0 17.0 0.00 0.00 0.00 25 1009.8
20260503171529 85 218 4.0 18.0 0.00 0.00 0.00 25 1009.9
20260503171029 85 170 3.0 18.0 0.00 0.00 0.00 25 1009.8
20260503170529 85 148 1.0 14.0 0.00 0.00 0.00 25 1010.0
20260503170249 85 218 1.0 14.0 0.00 0.00 0.00 25 1010.0
20260503150529 81 48 3.0 16.0 0.00 0.00 0.00 28 1009.8
20260503131224 80 52 0.0 2.0 0.00 0.00 0.00 29 1009.2
20260503130503 80 316 0.0 5.0 0.00 0.00 0.00 28 1009.1
20260503130221 80 298 0.0 5.0 0.00 0.00 0.00 28 1009.2
20260503110503 81 98 1.0 13.0 0.00 0.00 0.00 27 1008.9
20260503090502 83 51 3.0 18.0 0.00 0.00 0.00 20 1008.8
20260503081501 85 111 0.0 8.0 0.00 0.00 0.00 18 1009.1
20260503081228 85 340 0.0 8.0 0.00 0.00 0.00 19 1009.1
20260503080501 85 335 0.0 1.0 0.00 0.00 0.00 19 1009.0
20260503072438 84 315 0.0 2.0 0.00 0.00 0.00 18 1009.3
20260503071932 84 38 0.0 2.0 0.00 0.00 0.00 18 1009.3
20260503071651 84 11 0.0 0.0 0.00 0.00 0.00 18 1009.2